Home   Weather   Aalen   Past weeks
Flag for Germany

Past Weather in Aalen, Baden-Württemberg, Germany — Yesterday and Last 2 Weeks

Now
43 °F

Partly sunny.


Feels Like: 33 °F
Forecast: 50 / 40 °F
Wind: 23 mph from Southwest

Location: Niederstetten

Current Time: Dec 14, 2019 at 5:28:33 pm

Latest Report: Dec 14, 2019 at 4:20 pm


Visibility: N/A

Pressure: 29.53 "Hg

Humidity: 71%

Dew Point: 34 °F

Location of AalenLocation

Past Weather in Aalen — Graph

°F

Aalen Temperature Yesterday

Maximum temperature yesterday: 37 °F (at 1:50 pm)
Minimum temperature yesterday: 30 °F (at 12:20 am)
Average temperature yesterday: 34 °F

High & Low Weather Summary for the Past Weeks

 TemperatureHumidityPressure
High50 °F (Dec 8, 2:20 pm)100% (Nov 30, 6:20 am)30.36 "Hg (Nov 30, 6:20 am)
Low25 °F (Dec 5, 6:20 am)60% (Dec 2, 11:20 am)28.85 "Hg (Dec 13, 9:50 am)
Average35 °F89%29.88 "Hg
* Reported Nov 29 3:30 pm — Dec 14 3:20 pm, Aalen. Weather by CustomWeather, © 2019

Note: Actual official high and low records may vary slightly from our data, if they occured in-between our weather recording intervals... More about our weather records

Aalen Weather History for the Previous 24 Hours

Scroll right to see more
 ConditionsComfort  
Time TempWeatherWind HumidityBarometerVisibility
3:20 pm
Sat, Dec 14
43 °FPartly sunny.25 mph71%29.50 "HgN/A
2:20 pm43 °FScattered clouds.30 mph71%29.47 "HgN/A
1:20 pm41 °FScattered clouds.33 mph81%29.42 "HgN/A
1:12 pm39 °FScattered clouds.35 mph93%29.39 "Hg5 mi
12:20 pm41 °FSprinkles. Broken clouds.28 mph81%29.39 "HgN/A
11:20 am43 °FSprinkles. Partly sunny.23 mph81%29.36 "HgN/A
10:23 am39 °FHail. Broken clouds.28 mph93%29.30 "Hg6 mi
9:20 am43 °FLight rain. More clouds than sun.33 mph93%29.21 "Hg5 mi
8:50 am43 °FLight rain. Mostly cloudy.29 mph93%29.18 "Hg4 mi
8:35 am41 °FLight rain. Fog.28 mph93%29.15 "Hg3 mi
7:50 am37 °FPassing clouds.14 mph100%29.15 "HgN/A
7:20 am37 °FLight rain. Passing clouds.14 mph93%29.15 "Hg5 mi
6:20 am36 °FLight rain. Passing clouds.15 mph93%29.15 "HgN/A
5:20 am36 °FLight rain. Passing clouds.14 mph93%29.18 "HgN/A
4:20 am36 °FPassing clouds.15 mph87%29.21 "HgN/A
3:20 am36 °FPassing clouds.16 mph87%29.24 "HgN/A
2:20 am37 °FPassing clouds.14 mph87%29.24 "HgN/A
1:20 am37 °FPassing clouds.22 mph87%29.21 "HgN/A
12:20 am37 °FPassing clouds.24 mph93%29.24 "HgN/A
11:20 pm
Fri, Dec 13
37 °FDrizzle. Mostly cloudy.24 mph93%29.24 "HgN/A
10:20 pm37 °FRain. Fog.25 mph93%29.21 "Hg3 mi
10:01 pm37 °FRain. Fog.26 mph93%29.18 "Hg3 mi
9:20 pm37 °FLight rain. Mostly cloudy.25 mph93%29.15 "Hg6 mi
8:20 pm37 °FLight rain. Mostly cloudy.22 mph93%29.12 "Hg6 mi
7:20 pm36 °FLight rain. Mostly cloudy.21 mph100%29.09 "HgN/A
6:20 pm37 °FLight rain. Overcast.23 mph93%29.06 "Hg6 mi
5:20 pm37 °FLight rain. Overcast.22 mph93%29.03 "HgN/A
Weather by CustomWeather, © 2019

See weather overview

Advertising